Regional Weather Roundup
Issued by NWS Cleveland, OH

Home | Current Version | Previous Version | Text Only | Print | Product List | Glossary Off
Versions: 1 2 3 4 5 6 7 8 9 10 11 12 13 14 15 16 17 18 19 20 21 22 23 24 25 26 27 28 29 30 31 32 33 34 35 36 37 38 39 40 41 42 43 44 45 46 47 48 49 50

000
ASUS41 KCLE 221502
RWRCLE
OHIO REGIONAL WEATHER ROUNDUP
NATIONAL WEATHER SERVICE CLEVELAND, OH
1000 AM EST WED FEB 22 2017

NOTE: "FAIR" INDICATES FEW OR NO CLOUDS BELOW 12,000 FEET WITH NO
SIGNIFICANT WEATHER AND/OR OBSTRUCTIONS TO VISIBILITY.

OHZ001>008-015>018-024>027-034-035-043-044-221600-
   NORTHWEST OHIO

CITY           SKY/WX    TMP DP  RH WIND       PRES   REMARKS
DEFIANCE       CLOUDY    54  52  93 S6        29.87F FOG
FINDLAY        CLOUDY    58  53  84 SW10      29.87F HAZE
TOLEDO EXPRESS CLOUDY    57  55  93 SW8       29.86F FOG
TOLEDO EXEC    PTSUNNY   58  55  90 SW12      29.87F FOG
LIMA           CLOUDY    57  55  93 S9        29.89F FOG
$$

OHZ009>014-019>023-028>033-038-089-221600-
   NORTHEAST OHIO

CITY           SKY/WX    TMP DP  RH WIND       PRES   REMARKS
CLE-HOPKINS    CLOUDY    58  53  84 S8        29.92F
CLE-LAKEFRONT  CLOUDY    58  53  84 S10G17    29.88F
CUY CO. ARPT   CLOUDY    57  55  94 SW9       29.90F
LORAIN-ELYRIA  CLOUDY    57  52  83 SW9       29.90F
ASHTABULA      CLOUDY    53  51  93 S7        29.91F
AKRON-CANTON   LGT RAIN  54  51  90 SW7       29.93F VSB 1
WOOSTER        LGT RAIN  53  52  96 SW7       29.92F FOG
MANSFIELD      CLOUDY    55  54  96 S12       29.91F FOG
YOUNGSTOWN     LGT RAIN  54  53  97 SW7       29.94F FOG
$$

OHZ042-051>053-060>062-070>072-077>081-221600-
  SOUTHWEST OHIO

CITY           SKY/WX    TMP DP  RH WIND       PRES   REMARKS
CINC-COVINGTON LGT RAIN  56  56 100 S8        29.92F FOG
CINC-LUNKEN    CLOUDY    57  57 100 CALM      29.94F FOG
HAMILTON       CLOUDY    57  57 100 CALM      29.93F FOG
DAYTON         FOG       55  55 100 S10       29.92F VSB 1/2
WRIGHT-PAT AFB NOT AVBL
DAYTON GENERAL CLOUDY    55  55 100 S9        29.91F FOG
WILMINGTON     LGT RAIN  54  54 100 S6        29.93F FOG
$$

OHZ036-037-039>041-045>050-054>059-063>069-073>076-082>088-221600-
  CENTRAL AND SOUTHEAST OHIO

CITY           SKY/WX    TMP DP  RH WIND       PRES   REMARKS
COLUMBUS       DRZL/FOG  57  55  93 S7        29.93F VSB 3/4
OSU AIRPORT    FOG       54  54 100 S6        29.93F VSB 1
BOLTON FIELD   DRZL/FOG  54  54 100 S6        29.94F VSB 1/2
RICKENBACK AFB CLOUDY    55  55 100 S8        29.93F FOG
NEWARK         CLOUDY    55  53  93 S6        29.94S FOG
MARION         CLOUDY    57  53  86 SW12      29.91F FOG
LANCASTER      CLOUDY    57  55  93 S5        29.95F FOG
ZANESVILLE     LGT RAIN  55  52  89 S8        29.95F FOG
NEW PHILLY     NOT AVBL
$$




USA.gov is the U.S. government's official web portal to all federal, state and local government web resources and services.